BAW689 LGSR-EGLL

Flight info

Callsign BAW689
Flight time N/A
Altitude 36000
Route MADEX1X MADEX UL53 OLGAT DCT AIOSA/N0443F380 DCT IPKIS DCT ROTAR DCT SAFFA DCT ELMUR DCT RIPUS DCT DITON DCT HOC DCT LUL DCT RLP DCT ROTSI DCT KOTUN DCT NINAL DCT ABNUR DCT DIMAL DCT ALESO ALESO1H
Aircraft A320/M-SDE3FGIJ1KRWXY/SB1

Departure

Time 2026-04-24 20:54
Airport Santorini International Airport (LGSR)

Arrival

Time N/A
Airport London Heathrow Airport (EGLL)
Time Latitude Longitude Altitude Speed Heading
2026-04-24 20:27 36.40229 25.47436 90 ft 0 kts 249°
2026-04-24 20:44 36.40233 25.47447 89 ft 4 kts 249°
2026-04-24 20:45 36.40240 25.47471 91 ft 4 kts 230°
2026-04-24 20:45 36.40259 25.47484 89 ft 4 kts 169°
2026-04-24 20:45 36.40282 25.47475 91 ft 2 kts 159°
2026-04-24 20:45 36.40283 25.47474 91 ft 0 kts 159°
2026-04-24 20:48 36.40266 25.47486 92 ft 6 kts 141°
2026-04-24 20:49 36.40273 25.47540 91 ft 8 kts 65°
2026-04-24 20:49 36.40253 25.47589 89 ft 9 kts 150°
2026-04-24 20:49 36.40190 25.47622 90 ft 11 kts 160°
2026-04-24 20:49 36.40113 25.47655 88 ft 13 kts 160°
2026-04-24 20:50 36.40021 25.47698 86 ft 15 kts 159°
2026-04-24 20:50 36.39917 25.47748 88 ft 18 kts 159°
2026-04-24 20:50 36.39791 25.47809 88 ft 21 kts 159°
2026-04-24 20:50 36.39648 25.47879 80 ft 24 kts 159°
2026-04-24 20:51 36.39478 25.47958 70 ft 28 kts 160°
2026-04-24 20:51 36.39279 25.48049 63 ft 32 kts 159°
2026-04-24 20:51 36.39124 25.48120 54 ft 19 kts 156°
2026-04-24 20:51 36.39010 25.48188 53 ft 15 kts 123°
2026-04-24 20:52 36.39031 25.48307 52 ft 11 kts 67°
2026-04-24 20:52 36.39062 25.48320 53 ft 0 kts 339°
2026-04-24 20:53 36.39085 25.48309 56 ft 21 kts 339°
2026-04-24 20:53 36.39504 25.48113 62 ft 103 kts 339°
2026-04-24 20:53 36.40377 25.47703 121 ft 160 kts 340°
2026-04-24 20:54 36.41423 25.47236 929 ft 159 kts 346°
2026-04-24 20:54 36.42511 25.46895 1724 ft 163 kts 347°
2026-04-24 20:54 36.43665 25.46545 2034 ft 181 kts 348°
2026-04-24 20:54 36.44965 25.46153 2244 ft 203 kts 348°
2026-04-24 20:55 36.46401 25.45719 2526 ft 224 kts 348°
2026-04-24 20:55 36.48002 25.45234 2931 ft 246 kts 348°
2026-04-24 20:55 36.49697 25.44714 3680 ft 254 kts 348°
2026-04-24 20:55 36.51430 25.44177 4516 ft 259 kts 348°
2026-04-24 20:56 36.53195 25.43625 5311 ft 264 kts 348°
2026-04-24 20:56 36.54993 25.43061 6126 ft 269 kts 348°
2026-04-24 20:56 36.56822 25.42489 6900 ft 274 kts 348°
2026-04-24 20:56 36.58687 25.41907 7634 ft 279 kts 348°
2026-04-24 20:57 36.60592 25.41312 8367 ft 285 kts 348°
2026-04-24 20:57 36.62529 25.40704 9117 ft 290 kts 347°
2026-04-24 20:57 36.64424 25.39786 9828 ft 297 kts 331°
2026-04-24 20:57 36.66099 25.38225 10351 ft 310 kts 315°
2026-04-24 20:58 36.67480 25.36044 10529 ft 333 kts 305°
2026-04-24 20:58 36.68841 25.33599 10739 ft 352 kts 305°
2026-04-24 20:58 36.70250 25.31065 11266 ft 359 kts 305°
2026-04-24 20:58 36.71681 25.28496 11886 ft 362 kts 306°
2026-04-24 20:59 36.73102 25.25954 12546 ft 364 kts 306°
2026-04-24 20:59 36.74556 25.23353 13167 ft 367 kts 306°
2026-04-24 20:59 36.76025 25.20723 13799 ft 371 kts 306°
2026-04-24 20:59 36.77503 25.18078 14383 ft 373 kts 306°
2026-04-24 21:00 36.78997 25.15407 14910 ft 377 kts 306°
2026-04-24 21:00 36.80507 25.12710 15451 ft 380 kts 306°
2026-04-24 21:00 36.82025 25.10000 16008 ft 382 kts 306°
2026-04-24 21:00 36.83575 25.07228 16505 ft 387 kts 306°
2026-04-24 21:01 36.85115 25.04465 17080 ft 388 kts 305°
2026-04-24 21:01 36.86655 25.01693 17705 ft 389 kts 304°
2026-04-24 21:01 36.88180 24.98945 18266 ft 392 kts 304°
2026-04-24 21:01 36.89737 24.96132 18720 ft 396 kts 304°
2026-04-24 21:02 36.91307 24.93292 19188 ft 399 kts 304°
2026-04-24 21:02 36.92889 24.90431 19676 ft 402 kts 304°
2026-04-24 21:02 36.94485 24.87554 20157 ft 405 kts 304°
2026-04-24 21:02 36.96098 24.84646 20595 ft 409 kts 304°
2026-04-24 21:03 36.97720 24.81720 21081 ft 410 kts 304°
2026-04-24 21:03 36.99349 24.78776 21536 ft 413 kts 304°
2026-04-24 21:03 37.01009 24.75771 21948 ft 416 kts 303°
2026-04-24 21:03 37.02658 24.72777 22367 ft 419 kts 303°
2026-04-24 21:04 37.04293 24.69807 22794 ft 422 kts 303°
2026-04-24 21:04 37.05962 24.66775 23246 ft 424 kts 303°
2026-04-24 21:04 37.07636 24.63729 23656 ft 426 kts 303°
2026-04-24 21:04 37.09321 24.60662 24015 ft 429 kts 303°
2026-04-24 21:05 37.11013 24.57580 24365 ft 431 kts 303°
2026-04-24 21:05 37.12713 24.54477 24713 ft 433 kts 303°
2026-04-24 21:05 37.14424 24.51357 25050 ft 435 kts 303°
2026-04-24 21:05 37.16142 24.48223 25399 ft 438 kts 302°
2026-04-24 21:06 37.17868 24.45069 25744 ft 440 kts 302°
2026-04-24 21:06 37.19601 24.41898 26068 ft 441 kts 302°
2026-04-24 21:06 37.21333 24.38717 26453 ft 442 kts 301°
2026-04-24 21:06 37.23032 24.35486 26815 ft 444 kts 300°
2026-04-24 21:07 37.24694 24.32213 27141 ft 446 kts 299°
2026-04-24 21:07 37.26339 24.28899 27483 ft 448 kts 299°
2026-04-24 21:07 37.27980 24.25563 27814 ft 450 kts 298°
2026-04-24 21:07 37.29633 24.22213 28156 ft 452 kts 298°
2026-04-24 21:08 37.31298 24.18866 28625 ft 451 kts 298°
2026-04-24 21:08 37.32968 24.15538 29099 ft 450 kts 298°
2026-04-24 21:08 37.34640 24.12220 29570 ft 449 kts 298°
2026-04-24 21:08 37.36311 24.08907 30028 ft 448 kts 298°
2026-04-24 21:09 37.37976 24.05600 30457 ft 447 kts 298°
2026-04-24 21:09 37.39636 24.02284 30800 ft 448 kts 298°
2026-04-24 21:09 37.41291 23.98966 31182 ft 448 kts 299°
2026-04-24 21:09 37.42943 23.95651 31606 ft 447 kts 299°
2026-04-24 21:10 37.44591 23.92342 32029 ft 445 kts 300°
2026-04-24 21:10 37.46231 23.89046 32457 ft 444 kts 300°
2026-04-24 21:10 37.47869 23.85757 32890 ft 443 kts 300°
2026-04-24 21:10 37.49499 23.82479 33328 ft 441 kts 301°
2026-04-24 21:11 37.51123 23.79207 33759 ft 440 kts 301°
2026-04-24 21:11 37.52738 23.75942 34136 ft 439 kts 301°
2026-04-24 21:11 37.54352 23.72672 34419 ft 440 kts 301°
2026-04-24 21:11 37.55970 23.69398 34679 ft 440 kts 302°
2026-04-24 21:12 37.57589 23.66122 34944 ft 440 kts 302°
2026-04-24 21:12 37.58661 23.63952 35114 ft 441 kts 302°
2026-04-24 21:12 37.60831 23.59559 35456 ft 441 kts 302°
2026-04-24 21:12 37.62453 23.56275 35724 ft 441 kts 302°
2026-04-24 21:13 37.64073 23.52987 35955 ft 442 kts 302°
2026-04-24 21:13 37.65695 23.49686 36018 ft 445 kts 302°
2026-04-24 21:13 37.68975 23.43002 36025 ft 455 kts 302°
2026-04-24 21:14 37.72329 23.36163 36029 ft 460 kts 302°
2026-04-24 21:14 37.75702 23.29293 36032 ft 461 kts 302°
2026-04-24 21:15 37.79067 23.22401 36035 ft 461 kts 302°
2026-04-24 21:15 37.82419 23.15496 36036 ft 461 kts 302°
2026-04-24 21:16 37.85773 23.08586 36038 ft 461 kts 303°
2026-04-24 21:16 37.89130 23.01670 36034 ft 461 kts 303°
2026-04-24 21:17 37.92487 22.94745 36042 ft 462 kts 303°
2026-04-24 21:17 37.95401 22.89019 36038 ft 461 kts 306°
2026-04-24 21:18 37.99714 22.81299 36021 ft 462 kts 308°
2026-04-24 21:18 38.03467 22.74670 36021 ft 463 kts 308°
2026-04-24 21:19 38.07172 22.67962 36030 ft 465 kts 307°
2026-04-24 21:19 38.10851 22.61214 36035 ft 465 kts 307°
2026-04-24 21:20 38.16377 22.51075 36046 ft 466 kts 307°
2026-04-24 21:21 38.19442 22.45449 36038 ft 466 kts 307°
2026-04-24 21:21 38.23123 22.38677 36050 ft 465 kts 307°
2026-04-24 21:22 38.26805 22.31905 36061 ft 465 kts 307°
2026-04-24 21:22 38.30478 22.25126 36053 ft 465 kts 307°
2026-04-24 21:23 38.34146 22.18334 36070 ft 465 kts 307°
2026-04-24 21:23 38.37811 22.11538 36055 ft 465 kts 307°
2026-04-24 21:24 38.41470 22.04733 36073 ft 465 kts 307°
2026-04-24 21:24 38.45125 21.97925 36071 ft 465 kts 307°
2026-04-24 21:25 38.48775 21.91122 36083 ft 464 kts 307°
2026-04-24 21:25 38.52412 21.84318 36076 ft 464 kts 307°
2026-04-24 21:26 38.56040 21.77509 36067 ft 464 kts 307°
2026-04-24 21:26 38.59670 21.70701 36080 ft 463 kts 307°
2026-04-24 21:27 38.63288 21.63887 36078 ft 463 kts 307°